Disclaimer

Please do not use the information listed here in-flight or in-navigation, as they are not provided to us by the airports but are provided by volunteers, so they might be outdated.

Search


Regions


Airport information page

No radio frequency information is available.

Airport informations:
Latitude: 27° 15' 40.49" S
Longitude: 070° 46' 45.20" W
Elevation: 670 feet - 204 meters
Operating hours: Remarks
Operating agency: Civil government, landing fees and diplomatic clearance may be required
Timezone: UTC-4(-3DT)
Fuel: N/A

Runway information:
17/35 - 7218 x 148 feet< - >2200 x 45 meters

Recent METARs:
SCAT 200600Z AUTO VRB03KT 9999 // ///009 16/13 Q1014
SCAT 200600Z AUTO VRB03KT 9999 // ///009 16/13 Q1014
SCAT 200700Z AUTO VRB02KT 9999 // ///009 16/13 Q1013

Airport on the map: